[Iaude] MPEC F107: 2022 FC3 [a=1.04,e=0.22,i=3.8,H=25.3]

mpec at marsden.cfa.harvard.edu mpec at marsden.cfa.harvard.edu
Mon Mar 28 06:52:57 EDT 2022


M.P.E.C. 2022-F107                               Issued 2022 March 28, 10:51 UT

     The Minor Planet Electronic Circulars contain information on unusual
         minor planets and routine data on comets.  They are published
    on behalf of Division F of the International Astronomical Union by the
          Minor Planet Center, Smithsonian Astrophysical Observatory,
                          Cambridge, MA 02138, U.S.A.

             Prepared using the Tamkin Foundation Computer Network

                              MPC at CFA.HARVARD.EDU
            URL https://www.minorplanetcenter.net/    ISSN 1523-6714

                                    2022 FC3                                    


Observations:
     K22F03C* C2022 03 25.37043814 49 44.51 +45 32 10.5          20.96GVEF107G96
     K22F03C  C2022 03 25.37554714 49 40.83 +45 31 51.6          21.18GVEF107G96
     K22F03C  C2022 03 25.38065614 49 37.02 +45 31 31.4          21.65GVEF107G96
     K22F03C  C2022 03 25.38577114 49 33.23 +45 31 11.7          21.93GVEF107G96
     K22F03C KC2022 03 25.44920214 48 46.36 +45 26 54.7          21.16GVEF107I52
     K22F03C KC2022 03 25.45227014 48 44.13 +45 26 41.8          21.43GVEF107I52
     K22F03C KC2022 03 25.45533814 48 41.86 +45 26 29.1          21.97GVEF107I52
     K22F03C 1C2022 03 26.10038 14 41 34.39 +44 41 53.9          21.1 VXEF107033
     K22F03C 1C2022 03 26.10215 14 41 33.17 +44 41 45.5          21.7 VXEF107033
     K22F03C 1C2022 03 26.10395 14 41 31.96 +44 41 38.5          21.8 VXEF107033
     K22F03C 1C2022 03 26.10574 14 41 30.74 +44 41 30.8          21.6 VXEF107033
     K22F03C KC2022 03 26.44751214 37 51.17 +44 18 28.2          22.44GVEF107I52
     K22F03C KC2022 03 26.44953614 37 49.82 +44 18 19.1          22.38GVEF107I52
     K22F03C KC2022 03 26.45156114 37 48.42 +44 18 11.0          22.13GVEF107I52
     K22F03C KC2022 03 27.29695114 29 14.85 +43 18 44.9          21.8 VuEF107H21
     K22F03C KC2022 03 27.30533914 29 09.47 +43 18 09.9          21.6 VuEF107H21
     K22F03C KC2022 03 27.31372714 29 04.10 +43 17 34.7          21.7 VuEF107H21
     K22F03C KC2022 03 27.31931814 29 00.51 +43 17 11.3          21.8 VuEF107H21
     K22F03C 1C2022 03 28.09794 14 21 29.77 +42 21 33.1          21.6 VXEF107033
     K22F03C 1C2022 03 28.09995 14 21 28.55 +42 21 24.7          21.3 VXEF107033
     K22F03C 1C2022 03 28.10197 14 21 27.35 +42 21 15.7          21.8 VXEF107033
     K22F03C 1C2022 03 28.10399 14 21 26.11 +42 21 06.8          21.7 VXEF107033
     K22F03C  C2022 03 28.24983214 20 13.00 +42 10 58.4          21.9 GVEF107H01
     K22F03C  C2022 03 28.25545514 20 09.68 +42 10 36.0          21.9 GVEF107H01
     K22F03C KC2022 03 28.25967014 20 07.67 +42 10 18.9          21.98GVEF107I52
     K22F03C  C2022 03 28.26636714 20 03.25 +42 09 51.9          21.5 GVEF107H01
     K22F03C KC2022 03 28.26887414 20 02.34 +42 09 42.9          20.93GVEF107I52
     K22F03C  C2022 03 28.27363214 19 58.98 +42 09 22.7          21.6 GVEF107H01

Observer details:
033 Karl Schwarzschild Observatory, Tautenburg.  Observers S. Melnikov, C.
    Hoegner, U. Laux, F. Ludwig, B. Stecklum.  Measurer B. Stecklum.  1.34-m
    f/3 Schmidt + CCD.
G96 Mt. Lemmon Survey.  Observer G. J. Leonard.  Measurers E. J. Christensen,
    G. A. Farneth, J. B. Fazekas, D. C. Fuls, A. R. Gibbs, A. D. Grauer, H.
    Groeller, J. K. Hogan, R. A. Kowalski, S. M. Larson, G. J. Leonard, D.
    Rankin, R. L. Seaman, A. Serrano, F. C. Shelly, K. W. Wierzchos.  1.5-m
    reflector + 10K CCD.
H01 Magdalena Ridge Observatory, Socorro.  Observers W. H. Ryan, E. V. Ryan.
    Measurer W. H. Ryan.  2.4-m f/8.9 Ritchey-Chretien + CCD.
H21 Astronomical Research Observatory, Westfield.  Observer R. Holmes.
    Measurers T. Linder, R. Holmes, L. Horn.  0.76-m f/3.0 astrograph + CCD.
I52 Steward Observatory, Mt. Lemmon Station.  Observers K. W. Wierzchos, G. J.
    Leonard, H. Groeller.  Measurers E. J. Christensen, G. A. Farneth, J. B.
    Fazekas, D. C. Fuls, A. R. Gibbs, A. D. Grauer, H. Groeller, J. K. Hogan,
    R. A. Kowalski, S. M. Larson, G. J. Leonard, D. Rankin, R. L. Seaman, A.
    Serrano, F. C. Shelly, K. W. Wierzchos.

Orbital elements:
2022 FC3                                                 Earth MOID = 0.0653 AU
Epoch 2022 Jan. 21.0 TT = JDT 2459600.5                 Veres                   
M  17.75859              (2000.0)            P               Q                  
n   0.92533196     Peri.    7.68325     +0.12755724     -0.98975593             
a   1.0429681      Node    75.00475     +0.90642029     +0.09008043             
e   0.2234070      Incl.    3.80657     +0.40265546     +0.11076420             
P   1.07           H   25.35          G   0.15           U   7                  
Residuals in seconds of arc
220325 G96  1.0-  1.0-    220326 033  0.1+  0.2-    220328 033  0.3-  0.3-
220325 G96  0.1+  0.1+    220326 I52  0.4-  0.3+    220328 033  0.7-  0.4-
220325 G96  0.2-  0.1-    220326 I52  0.0   0.1-    220328 H01  0.0   0.1-
220325 G96  0.3-  0.4+    220326 I52  0.0   0.4+    220328 H01  0.1-  0.0
220325 I52  0.1+  0.0     220327 H21  0.1-  0.3+    220328 I52  0.0   0.0
220325 I52  0.4+  0.2-    220327 H21  0.1-  0.1+    220328 H01  0.1-  0.2-
220325 I52  0.3+  0.1-    220327 H21  0.0   0.0     220328 I52  1.0+  0.8+
220326 033  0.4-  0.4+    220327 H21  0.0   0.0     220328 H01  0.1+  0.0
220326 033  0.4-  0.6-    220328 033  0.1-  0.5-
220326 033  0.0   0.1-    220328 033  0.3-  0.1-

Ephemeris:
2022 FC3                 a,e,i = 1.04, 0.22, 4                   q = 0.8100
Date    TT    R. A. (2000) Decl.     Delta      r    Elong.  Phase     V
2022 02 26    21 12 25.8 +34 02 39   0.08382 0.9351    47.2   129.0    25.4
...
2022 03 13    18 06 59.8 +51 39 55   0.06747 0.9924    86.9    89.2    22.6
...
2022 03 21    15 47 44.3 +49 51 33   0.07126 1.0232   110.6    65.7    22.0
...
2022 03 27    14 32 11.7 +43 39 36   0.07966 1.0459   125.5    50.9    21.8
2022 03 28    14 22 27.0 +42 28 53   0.08149 1.0497   127.6    48.9    21.8
2022 03 29    14 13 24.6 +41 17 29   0.08343 1.0534   129.6    46.9    21.8
...
2022 04 04    13 31 27.7 +34 16 51   0.09733 1.0754   139.1    37.5    22.0
...
2022 04 12    12 58 17.7 +26 08 48   0.1212  1.1037   145.0    31.4    22.3
...
2022 04 27    12 32 09.5 +15 03 19   0.1795  1.1521   141.4    33.0    23.3

M. P. C. Staff               (C) Copyright 2022 MPC           M.P.E.C. 2022-F107




More information about the Iaude mailing list